Regional Weather Roundup
Issued by NWS Little Rock, AR

Home | Current Version | Previous Version | Graphics & Text | Print | Product List | Glossary On
Versions: 1 2 3 4 5 6 7 8 9 10 11 12 13 14 15 16 17 18 19 20 21 22 23 24 25 26 27 28 29 30 31 32 33 34 35 36 37 38 39 40 41 42 43 44 45 46 47 48 49 50
000
ASUS44 KLZK 200805
RWRLZK

WEATHER ROUNDUP FOR ARKANSAS
NATIONAL WEATHER SERVICE LITTLE ROCK AR
300 AM CDT SUN AUG 20 2017

NOTE: "FAIR" INDICATES FEW OR NO CLOUDS BELOW 12,000 FEET WITH NO
SIGNIFICANT WEATHER AND/OR OBSTRUCTIONS TO VISIBILITY.

ARZ001-003-010-029-200900-
NORTHWEST ARKANSAS

CITY           SKY/WX    TMP DP  RH WIND       PRES   REMARKS
FAYETTEVILLE   MOCLDY    72  72 100 S5        29.99F
FORT SMITH     PTCLDY    78  76  93 E3        29.95F
HARRISON       CLEAR     74  73  97 SE9       30.01F
BENTONVILLE    PTCLDY    75  70  83 CALM      29.99F
ROGERS         PTCLDY    75  72  90 SE3       30.00F
SILOAM SPGS    MOCLDY    75  70  83 S3        29.98F
HIGHFILL       CLOUDY    75  72  90 SW5       29.99F
$$

ARZ004-005-016-200900-
NORTH CENTRAL ARKANSAS

CITY           SKY/WX    TMP DP  RH WIND       PRES   REMARKS
BATESVILLE     PTCLDY    73  72  94 CALM      29.98F
FLIPPIN        CLEAR     75  68  78 CALM      29.96F
MTN HOME       CLEAR     75  73  93 S5        29.98F
$$

ARZ040-041-200900-
WEST CENTRAL ARKANSAS

CITY           SKY/WX    TMP DP  RH WIND       PRES   REMARKS
MENA           NOT AVBL
MOUNT IDA      CLEAR     76  74  93 CALM      29.97F FOG
$$

ARZ009-017-025-026-028-200900-
NORTHEAST ARKANSAS

CITY           SKY/WX    TMP DP  RH WIND       PRES   REMARKS
JONESBORO      CLEAR     76  76 100 CALM      29.97S
WALNUT RIDGE   CLEAR     73  70  88 S5        29.97F
BLYTHEVILLE    PTCLDY    72  72 100 CALM      29.98S FOG
$$

ARZ022-023-033-042-044-200900-
CENTRAL ARKANSAS

CITY           SKY/WX    TMP DP  RH WIND       PRES   REMARKS
LITTLE ROCK    PTCLDY    78  78 100 CALM      29.98S
N LITTLE ROCK    N/A     80  76  87 CALM      29.98S HX  86
JACKSONVILLE   PTCLDY    77  77  99 CALM      29.97F
CONWAY           N/A     77  77 100 N3        29.95F
SEARCY         PTCLDY    74  73  97 NE5       29.99F
HOT SPRINGS    CLEAR     78  78 100 NW3       29.98F
RUSSELLVILLE   PTCLDY    77  76  96 E3        29.96F
CLINTON        MOCLDY    73  73 100 CALM      29.99F FOG
$$

ARZ036-200900-
EAST ARKANSAS

CITY           SKY/WX    TMP DP  RH WIND       PRES   REMARKS
WEST MEMPHIS   CLEAR     76  76 100 CALM      29.97S
$$

ARZ050-053-066-070-073-200900-
SOUTHWEST ARKANSAS

CITY           SKY/WX    TMP DP  RH WIND       PRES   REMARKS
ARKADELPHIA    FAIR      76  76 100 CALM      29.97F FOG
CAMDEN         CLEAR     77  73  88 CALM      29.97S
TEXARKANA      PTCLDY    79  76  90 SW3       29.97F
EL DORADO      CLEAR     77  75  93 CALM      29.99S
DE QUEEN       FOG       77  77 100 CALM      29.95F VSB 3/4
$$

ARZ056-057-069-200900-
SOUTHEAST ARKANSAS

CITY           SKY/WX    TMP DP  RH WIND       PRES   REMARKS
PINE BLUFF     CLEAR     79  75  87 SW5       29.98S
MONTICELLO     CLEAR     79  73  82 SW5       29.99F

$$





USA.gov is the U.S. government's official web portal to all federal, state and local government web resources and services.